[[{"header":{"parameterUnit":"m.s-1","parameterCategory":1,"la1":30.2991,"la2":30.254,"lo1":-89.0895,"lo2":-89.0444,"dy":0.0017,"dx":0.0017,"nx":28,"ny":28,"refTime":"2025-02-07T03:00:00:Z","depth":0,"parameterNumber":2,"parameterNumberName":"U-component_of_WINDS"},"data":[0,0,0,0,0,0,0,0,0,0,0,0,0,0,0,0,0,0,0,0,0,0,0,0,0,0,0,0,0,0,0,0,0,0,0,0,0,0,0,0,0,0,0,0,0,0,0,0,0,0,0,0,0,0,0,0,0,0,-1.0956,-1.0956,0,-1.0994,-1.0995,-1.0995,-1.0968,-1.0967,-1.0966,-1.0964,-1.1005,-1.1007,-1.1009,0,0,0,0,0,0,0,0,0,0,0,0,0,-1.086,-1.0862,-1.0956,-1.0956,-1.0957,-1.0994,-1.0995,-1.0995,-1.0968,-1.0967,-1.0965,-1.0964,-1.1004,-1.1007,-1.101,0,0,0,0,0,0,0,0,0,0,0,0,0,-1.0901,-1.0863,-1.0956,-1.0948,-1.0947,-1.0994,-1.0995,-1.0996,-1.0969,-1.0967,-1.0965,-1.0963,-1.1003,-1.1007,-1.101,-1.1067,0,0,-1.102,-1.1022,0,0,0,0,0,0,0,0,-1.0898,-1.0904,-1.0948,-1.0948,-1.0948,-1.0975,-1.0976,-1.102,-1.0969,-1.0961,-1.0964,-1.0962,-1.0996,-1.1,-1.1011,-1.1069,-1.1071,-1.102,-1.1022,-1.1024,-1.1025,0,0,0,0,0,0,0,-1.0896,-1.0902,-1.0971,-1.0949,-1.0949,-1.0943,-1.0947,-1.0984,-1.0988,-1.0961,-1.0959,-1.0964,-1.0996,-1.1008,-1.1012,-1.1071,-1.102,-1.1023,-1.1025,-1.1027,-1.118,-1.1182,0,0,0,0,0,0,-1.0893,-1.09,-1.097,-1.0972,-1.0918,-1.0946,-1.095,-1.0968,-1.0988,-1.0989,-1.0966,-1.0963,-1.1004,-1.1008,-1.1014,-1.1083,-1.1024,-1.1027,-1.1029,-1.1178,-1.118,-1.1182,0,0,0,0,0,0,-1.0891,-1.09,-1.0968,-1.0936,-1.0944,-1.095,-1.097,-1.097,-1.0982,-1.0991,-1.0992,-1.0977,-1.1002,-1.1009,-1.1054,-1.1084,-1.1028,-1.1031,-1.1175,-1.1178,-1.1181,-1.1221,0,0,0,0,0,0,-1.0889,-1.0899,-1.092,-1.0936,-1.0946,-1.1008,-1.0972,-1.0972,-1.0988,-1.0984,-1.1002,-1.1004,-1.1001,-1.105,-1.1058,-1.1087,-1.1034,-1.1173,-1.1177,-1.118,-1.1217,-1.1225,-1.1232,0,0,0,0,0,-1.0885,-1.093,-1.0921,-1.093,-1.0972,-1.1009,-1.1015,-1.1011,-1.099,-1.1012,-1.1018,-1.1003,-1.1079,-1.1054,-1.1063,-1.1094,-1.1171,-1.1176,-1.118,-1.1214,-1.1224,-1.1232,0,0,0,0,0,0,-1.0917,-1.0932,-1.0923,-1.0973,-1.0991,-1.1005,-1.1032,-1.1021,-1.1045,-1.104,-1.1035,-1.1039,-1.1087,-1.1095,-1.1067,-1.1152,-1.1122,-1.1129,-1.1144,-1.1154,-1.1161,-1.1158,-1.1037,0,0,0,0,0,-1.093,-1.0958,-1.097,-1.1014,-1.1023,-1.1026,-1.1042,-1.1038,-1.1055,-1.1062,-1.1072,-1.109,-1.1118,-1.1136,-1.1163,-1.1219,-1.1223,-1.1245,-1.1252,-1.1258,-1.1264,-1.1295,-1.1305,-1.1198,-1.1198,-1.1198,0,0,-1.0956,-1.0968,-1.0986,-1.102,-1.1033,-1.1063,-1.1032,-1.1065,-1.1088,-1.1067,-1.1111,-1.1119,-1.1139,-1.119,-1.1213,-1.1198,-1.1295,-1.1264,-1.1269,-1.1271,-1.1301,-1.1311,-1.1321,-1.1201,-1.12,-1.12,0,0,-1.102,-1.1032,-1.107,-1.1084,-1.1104,-1.1106,-1.1115,-1.1132,-1.1136,-1.118,-1.1166,-1.1193,-1.1242,-1.1257,-1.1271,-1.1343,-1.1331,-1.1352,-1.1391,-1.1421,-1.143,-1.1437,-1.1464,-1.1474,-1.1358,-1.1358,-1.1358,0,-1.1051,-1.1096,-1.1091,-1.1126,-1.1142,-1.1125,-1.1165,-1.1178,-1.1206,-1.1218,-1.1201,-1.1262,-1.1274,-1.1329,-1.1347,-1.1359,-1.137,-1.1349,-1.1429,-1.1437,-1.1443,-1.1469,-1.1479,-1.136,-1.136,-1.136,-1.136,0,-1.1133,-1.1164,-1.1193,-1.122,-1.124,-1.1277,-1.1279,-1.1299,-1.1294,-1.1298,-1.1344,-1.1358,-1.1388,-1.1401,-1.1396,-1.1456,-1.1446,-1.143,-1.1399,-1.1456,-1.148,-1.149,-1.1364,-1.1363,-1.1362,-1.1362,0,0,-1.1216,-1.1242,-1.1253,-1.1266,-1.1287,-1.1312,-1.1349,-1.1378,-1.1396,-1.1416,-1.1447,-1.149,-1.1475,-1.1491,-1.1488,-1.1515,-1.1573,-1.1495,-1.1495,-1.1509,-1.1641,-1.1654,-1.1665,-1.1565,-1.1567,-1.1568,-1.164,0,-1.1282,-1.1346,-1.1344,-1.1403,-1.1433,-1.1419,-1.1451,-1.1469,-1.1475,-1.1501,-1.1508,-1.1538,-1.1516,-1.1526,-1.1552,-1.156,-1.1599,-1.1555,-1.1595,-1.1596,-1.159,-1.1677,-1.169,-1.1756,-1.1649,-1.165,-1.1651,0,-1.1366,-1.139,-1.1453,-1.1472,-1.1484,-1.1513,-1.154,-1.1566,-1.1586,-1.1588,-1.1608,-1.1601,-1.1639,-1.1609,-1.1663,-1.1633,-1.1649,-1.1656,-1.1658,-1.1662,-1.1627,-1.1683,-1.1777,-1.1788,-1.1666,-1.1665,-1.1664,0,-1.1421,-1.1469,-1.1513,-1.1524,-1.1547,-1.1568,-1.1579,-1.1597,-1.1616,-1.164,-1.1652,-1.168,-1.1696,-1.1719,-1.1721,-1.1698,-1.1775,-1.1744,-1.1779,-1.1779,-1.1795,-1.1794,-1.1894,-1.1806,-1.1806,-1.1806,-1.1806,0,-1.1495,-1.1534,-1.1538,-1.1565,-1.1609,-1.1607,-1.1651,-1.166,-1.1677,-1.1706,-1.1696,-1.1724,-1.1724,-1.1753,-1.1755,-1.18,-1.1807,-1.1811,-1.1811,-1.1812,-1.1811,-1.1822,-1.1817,-1.1809,-1.1808,-1.1808,-1.1807,0,-1.1563,-1.1567,-1.1615,-1.1633,-1.1639,-1.167,-1.1687,-1.1713,-1.1719,-1.1756,-1.1765,-1.1774,-1.1807,-1.1811,-1.1851,-1.1852,-1.1906,-1.1901,-1.1899,-1.1899,-1.1933,-1.193,-1.2043,-1.2058,-1.1961,-1.1962,-1.1962,0,-1.1609,-1.1639,-1.1661,-1.168,-1.1692,-1.1722,-1.1741,-1.1742,-1.1762,-1.1788,-1.1812,-1.1844,-1.187,-1.1925,-1.1936,-1.1966,-1.1962,-1.2,-1.1966,-1.1967,-1.1963,-1.1961,-1.1965,-1.2006,-1.2007,-1.2008,-1.2009,0,-1.1691,-1.1692,-1.1719,-1.1748,-1.1771,-1.1794,-1.1815,-1.1831,-1.1835,-1.1858,-1.1892,-1.1913,-1.1954,-1.1987,-1.2017,-1.2029,-1.202,-1.2019,-1.2029,-1.203,-1.2028,-1.203,-1.1917,-1.2016,-1.2016,-1.2015,-1.2015,-1.2014,-1.175,-1.1776,-1.1796,-1.1828,-1.1844,-1.1865,-1.1891,-1.19,-1.1929,-1.1962,-1.1961,-1.1999,-1.202,-1.206,-1.2074,-1.2105,-1.2093,-1.2106,-1.211,-1.2113,-1.2117,-1.2023,-1.2111,-1.211,-1.211,-1.211,-1.211,0,-1.1831,-1.1844,-1.1873,-1.1903,-1.1929,-1.1918,-1.1942,-1.1964,-1.1997,-1.2018,-1.2044,-1.2085,-1.2117,-1.2131,-1.2163,-1.2185,-1.2182,-1.2194,-1.2192,-1.2195,-1.2126,-1.2115,-1.2196,-1.2196,-1.2196,-1.2196,-1.2196,-1.2196,-1.1877,-1.1921,-1.1925,-1.1978,-1.1991,-1.2028,-1.2043,-1.2062,-1.2079,-1.2125,-1.2152,-1.216,-1.2179,-1.2213,-1.2243,-1.2246,-1.2259,-1.2272,-1.2274,-1.2209,-1.22,-1.2192,-1.2181,-1.2275,-1.2275,-1.2341,-1.2341,-1.2342]},{"header":{"parameterUnit":"m.s-1","parameterCategory":1,"la1":30.2991,"la2":30.254,"lo1":-89.0895,"lo2":-89.0444,"dy":0.0017,"dx":0.0017,"nx":28,"ny":28,"refTime":"2025-02-07T03:00:00:Z","depth":0,"parameterNumber":3,"parameterNumberName":"V-component_of_WINDS"},"data":[0,0,0,0,0,0,0,0,0,0,0,0,0,0,0,0,0,0,0,0,0,0,0,0,0,0,0,0,0,0,0,0,0,0,0,0,0,0,0,0,0,0,0,0,0,0,0,0,0,0,0,0,0,0,0,0,0,0,0.915,0.9151,0,0.923,0.923,0.9231,0.9313,0.9314,0.9315,0.9316,0.9397,0.9398,0.9399,0,0,0,0,0,0,0,0,0,0,0,0,0,0.9071,0.9072,0.915,0.9151,0.9152,0.9229,0.9231,0.9232,0.9313,0.9314,0.9315,0.9317,0.9396,0.9398,0.9399,0,0,0,0,0,0,0,0,0,0,0,0,0,0.9123,0.9073,0.915,0.9202,0.9207,0.9229,0.9231,0.9232,0.9312,0.9314,0.9316,0.9317,0.9396,0.9398,0.9399,0.9376,0,0,0.9404,0.9405,0,0,0,0,0,0,0,0,0.912,0.9126,0.9193,0.9199,0.9205,0.9263,0.9232,0.928,0.9312,0.9272,0.9316,0.9318,0.9351,0.9356,0.9368,0.938,0.9383,0.9405,0.9406,0.9406,0.9407,0,0,0,0,0,0,0,0.9117,0.9123,0.9182,0.9194,0.9201,0.9222,0.9231,0.9242,0.9301,0.9276,0.9282,0.929,0.9354,0.9366,0.937,0.9385,0.9405,0.9406,0.9407,0.9408,0.9385,0.9383,0,0,0,0,0,0,0.9105,0.912,0.9179,0.9184,0.9166,0.9222,0.9232,0.9243,0.9301,0.9312,0.9289,0.9294,0.9362,0.9368,0.9373,0.9352,0.9406,0.9408,0.9409,0.9386,0.9385,0.9383,0,0,0,0,0,0,0.9103,0.9109,0.9176,0.9154,0.9164,0.9222,0.9232,0.9243,0.9255,0.9311,0.9322,0.9289,0.9364,0.9371,0.9376,0.9356,0.9409,0.941,0.9388,0.9386,0.9384,0.9307,0,0,0,0,0,0,0.91,0.9108,0.9099,0.9153,0.9165,0.9176,0.9231,0.9244,0.9257,0.9265,0.9315,0.9325,0.9366,0.9373,0.9377,0.9359,0.9411,0.939,0.9387,0.9384,0.9311,0.9302,0.9294,0,0,0,0,0,0.9097,0.9074,0.9098,0.9105,0.9155,0.9175,0.9181,0.9229,0.9255,0.9248,0.9284,0.9323,0.9357,0.9372,0.9378,0.936,0.9392,0.9388,0.9385,0.9315,0.9304,0.9294,0,0,0,0,0,0,0.9016,0.9082,0.911,0.9103,0.9133,0.9188,0.918,0.9215,0.9238,0.9244,0.9302,0.9313,0.9311,0.9336,0.9352,0.9342,0.938,0.9377,0.9325,0.9315,0.9307,0.93,0.9413,0,0,0,0,0,0.8998,0.9008,0.9065,0.9054,0.9067,0.9121,0.9131,0.9166,0.9199,0.9211,0.9248,0.9279,0.9297,0.9308,0.9327,0.9316,0.9329,0.9307,0.9298,0.9291,0.9287,0.9286,0.9277,0.9371,0.9371,0.9371,0,0,0.8959,0.8996,0.8999,0.9039,0.9066,0.9076,0.9131,0.9139,0.9147,0.9213,0.922,0.9248,0.9286,0.9283,0.9284,0.9304,0.9265,0.9286,0.928,0.9281,0.9281,0.9272,0.9264,0.9368,0.9369,0.9369,0,0,0.8894,0.8923,0.8918,0.8944,0.8985,0.9021,0.902,0.9071,0.9092,0.91,0.915,0.9162,0.9191,0.9217,0.9233,0.9181,0.9218,0.9186,0.9141,0.9138,0.9131,0.9125,0.9107,0.91,0.9183,0.9183,0.9183,0,0.8841,0.8858,0.891,0.8916,0.8932,0.8993,0.8989,0.9012,0.9057,0.9067,0.909,0.9129,0.9159,0.9164,0.9152,0.9163,0.9165,0.918,0.9128,0.9122,0.9117,0.9101,0.9094,0.9179,0.9179,0.918,0.918,0,0.8792,0.8803,0.8794,0.8836,0.8852,0.8852,0.8906,0.8915,0.8949,0.8983,0.8992,0.903,0.906,0.9063,0.9096,0.9074,0.9085,0.9117,0.9156,0.9103,0.9089,0.9083,0.9173,0.9174,0.9176,0.9177,0,0,0.8676,0.8749,0.8745,0.8766,0.8817,0.8827,0.8831,0.886,0.8868,0.8897,0.8903,0.8928,0.8958,0.8977,0.9014,0.9011,0.8969,0.9044,0.9046,0.9029,0.8949,0.8925,0.8917,0.8995,0.8994,0.8993,0.8946,0,0.862,0.8631,0.8679,0.8676,0.8688,0.8748,0.8752,0.8784,0.8816,0.8832,0.8868,0.8885,0.8923,0.8936,0.8936,0.8974,0.8954,0.8978,0.9001,0.9001,0.899,0.891,0.8884,0.8838,0.8941,0.894,0.894,0,0.8556,0.8583,0.8581,0.8633,0.864,0.8643,0.8675,0.8688,0.8727,0.8751,0.8773,0.8815,0.8824,0.8861,0.8875,0.8891,0.8903,0.8924,0.8923,0.8927,0.8967,0.8912,0.8824,0.8817,0.8931,0.8932,0.8933,0,0.8473,0.8508,0.8512,0.8528,0.8589,0.859,0.8616,0.8656,0.8671,0.8699,0.871,0.8738,0.8754,0.8776,0.8824,0.8847,0.8834,0.8874,0.8855,0.8854,0.8849,0.8848,0.8762,0.8856,0.8856,0.8857,0.8857,0,0.8406,0.8402,0.8476,0.8478,0.8477,0.8534,0.8531,0.8563,0.8598,0.8609,0.8662,0.867,0.8734,0.875,0.8789,0.8796,0.8802,0.8823,0.8833,0.8818,0.8815,0.8827,0.8831,0.8855,0.8855,0.8856,0.8856,0,0.8312,0.8361,0.837,0.8427,0.8442,0.8439,0.8489,0.8494,0.8531,0.8544,0.855,0.8608,0.863,0.8681,0.8716,0.8743,0.874,0.8758,0.8727,0.8733,0.8711,0.8713,0.8629,0.8622,0.872,0.8719,0.8718,0,0.8266,0.8265,0.8323,0.8334,0.8358,0.8374,0.8391,0.8447,0.8462,0.8507,0.8507,0.8534,0.8558,0.8592,0.8637,0.8666,0.8685,0.8654,0.869,0.8676,0.8686,0.8685,0.8686,0.8646,0.8645,0.8644,0.8643,0,0.8178,0.8204,0.8225,0.8255,0.8273,0.83,0.833,0.8336,0.84,0.8414,0.8438,0.8457,0.8495,0.8521,0.8557,0.8584,0.8624,0.8631,0.8629,0.8613,0.8595,0.8606,0.8706,0.8633,0.8634,0.8635,0.8635,0.8635,0.8108,0.811,0.8152,0.8175,0.8204,0.8231,0.8239,0.8278,0.8299,0.8334,0.8366,0.8387,0.8429,0.8481,0.8506,0.8524,0.8544,0.8539,0.8538,0.8536,0.8531,0.8593,0.8531,0.8531,0.8531,0.8532,0.8532,0,0.8024,0.8054,0.8075,0.8115,0.8134,0.8171,0.8206,0.8219,0.8237,0.8272,0.8295,0.8324,0.8351,0.8399,0.8431,0.8436,0.8455,0.8442,0.8442,0.8448,0.851,0.851,0.8426,0.8426,0.8426,0.8426,0.8426,0.8426,0.7982,0.7989,0.802,0.8042,0.8074,0.8095,0.8112,0.8138,0.8167,0.8196,0.8219,0.8251,0.8292,0.8327,0.8353,0.8367,0.8377,0.8358,0.8377,0.8434,0.8444,0.8453,0.8453,0.8359,0.8359,0.8314,0.8314,0.8313]}]]